Location: Wyalusing
(42.9440°N, 91.1410°W)
Time: 01:51:21
(UTC-05:00)

ISS - Visible Passes

Search period start: 24 April 2018 00:00
Search period end: 04 May 2018 00:00
Orbit: 403 x 406 km, 51.6° (Epoch: 24 April)

Date Brightness Start Highest point End Pass type
(mag) Time Alt. Az. Time Alt. Az. Time Alt. Az.
30 Apr -1.2 05:20:45 10° S 05:22:44 15° SE 05:24:42 10° E visible
02 May -2.6 05:11:17 10° SSW 05:14:16 34° SE 05:17:17 10° ENE visible
03 May -1.7 04:20:44 15° SSE 04:22:05 19° SE 04:24:27 10° E visible
